Regional Weather Roundup
Issued by NWS Charleston, WV

Home | Current Version | Previous Version | Text Only | Print | Product List | Glossary Off
Versions: 1 2 3 4 5 6 7 8 9 10 11 12 13 14 15 16 17 18 19 20 21 22 23 24 25 26 27 28 29 30 31 32 33 34 35 36 37 38 39 40 41 42 43 44 45 46 47 48 49 50

940
ASUS41 KRLX 120410
RWRRLX
West Virginia Regional Weather Roundup
National Weather Service Charleston WV
1100 PM EST MON DEC 11 2017

Note: "fair" indicates few or no clouds below 12,000 feet with no
significant weather and/or obstructions to visibility.

WVZ003-120500-
Northern Panhandle of West Virginia

CITY           SKY/WX    TMP DP  RH WIND       PRES   REMARKS
WHEELING       CLOUDY    33  21  61 E9        29.65F
$$

WVZ009-120500-
Northwest West Virginia

CITY           SKY/WX    TMP DP  RH WIND       PRES   REMARKS
PARKERSBURG    CLOUDY    33  26  75 CALM      29.70F
$$

WVZ006-120500-
Western West Virginia

CITY           SKY/WX    TMP DP  RH WIND       PRES   REMARKS
HUNTINGTON     PTCLDY    48  27  44 SW9       29.70F
$$

WVZ015-120500-
West Central West Virginia

CITY           SKY/WX    TMP DP  RH WIND       PRES   REMARKS
CHARLESTON     CLOUDY    50  27  40 SW9       29.70F
$$

WVZ022-031-120500-
North Central West Virginia

CITY           SKY/WX    TMP DP  RH WIND       PRES   REMARKS
CLARKSBURG     CLOUDY    35  24  64 S3        29.70F
MORGANTOWN     MOCLDY    34  24  67 CALM      29.69F
$$

WVZ025-035-042-045-120500-
Southern West Virginia

CITY           SKY/WX    TMP DP  RH WIND       PRES   REMARKS
BECKLEY        PTCLDY    43  25  49 SW10      29.75F
LOGAN            N/A     48  27  43 S7        29.73F
BLUEFIELD      CLEAR     42  24  49 SW8       29.79F
LEWISBURG      PTCLDY    30  25  81 CALM      29.79S
$$

WVZ047-120500-
Northern Mountains of West Virginia

CITY           SKY/WX    TMP DP  RH WIND       PRES   REMARKS
ELKINS         PTCLDY    28  23  81 CALM      29.72F
$$

WVZ052-120500-
Eastern Panhandle of West Virginia

CITY           SKY/WX    TMP DP  RH WIND       PRES   REMARKS
MARTINSBURG    MOCLDY    37  25  61 CALM      29.79F
PETERSBURG     PTCLDY    31  24  75 CALM      29.76S
$$




USA.gov is the U.S. government's official web portal to all federal, state and local government web resources and services.